SWR225 LSZH-LIEE

Flight info

Callsign SWR225
Flight time 1h 38m
Altitude 38000
Route VEBIT T53 GERSA DCT SOSON DCT ODINA DCT EVANO/N0448F390 DCT ERTEV DCT TORTU DCT OKROK DCT AJO DCT CORSI DCT UPDUT DCT MINKA DCT RAMEN M732 KOVAS
Aircraft A20N/M-SDE2E3FGHIRWXY/LB1

Departure

Time 2026-05-05 12:52
Airport Zürich Airport (LSZH)

Arrival

Time 2026-05-05 14:31
Airport Cagliari Elmas Airport (LIEE)
Time Latitude Longitude Altitude Speed Heading
2026-05-05 12:32 47.45346 8.55754 1409 ft 0 kts
2026-05-05 12:42 47.45332 8.55752 1410 ft 3 kts
2026-05-05 12:43 47.45313 8.55750 1409 ft 3 kts
2026-05-05 12:43 47.45295 8.55747 1409 ft 3 kts
2026-05-05 12:43 47.45277 8.55749 1406 ft 2 kts 346°
2026-05-05 12:43 47.45262 8.55761 1401 ft 2 kts 295°
2026-05-05 12:44 47.45259 8.55771 1409 ft 0 kts 274°
2026-05-05 12:46 47.45259 8.55767 1409 ft 2 kts 274°
2026-05-05 12:46 47.45265 8.55710 1402 ft 9 kts 278°
2026-05-05 12:46 47.45277 8.55594 1407 ft 14 kts 294°
2026-05-05 12:47 47.45370 8.55512 1404 ft 18 kts 334°
2026-05-05 12:47 47.45489 8.55424 1405 ft 15 kts 335°
2026-05-05 12:47 47.45582 8.55366 1401 ft 14 kts 335°
2026-05-05 12:47 47.45666 8.55363 1408 ft 12 kts 53°
2026-05-05 12:48 47.45665 8.55474 1400 ft 10 kts 98°
2026-05-05 12:48 47.45658 8.55576 1400 ft 10 kts 95°
2026-05-05 12:48 47.45651 8.55673 1400 ft 9 kts 95°
2026-05-05 12:48 47.45646 8.55765 1409 ft 9 kts 95°
2026-05-05 12:49 47.45639 8.55854 1400 ft 12 kts 95°
2026-05-05 12:49 47.45630 8.55977 1404 ft 12 kts 97°
2026-05-05 12:49 47.45621 8.56092 1400 ft 11 kts 95°
2026-05-05 12:49 47.45611 8.56247 1400 ft 19 kts 95°
2026-05-05 12:50 47.45597 8.56437 1403 ft 18 kts 96°
2026-05-05 12:50 47.45584 8.56620 1403 ft 18 kts 96°
2026-05-05 12:50 47.45572 8.56794 1400 ft 17 kts 96°
2026-05-05 12:50 47.45564 8.56964 1400 ft 15 kts 76°
2026-05-05 12:51 47.45638 8.57028 1406 ft 11 kts
2026-05-05 12:51 47.45663 8.57000 1403 ft 0 kts 277°
2026-05-05 12:51 47.45665 8.56968 1401 ft 17 kts 275°
2026-05-05 12:52 47.45704 8.56408 1404 ft 92 kts 275°
2026-05-05 12:52 47.45800 8.55078 1430 ft 160 kts 277°
2026-05-05 12:52 47.45932 8.53417 2142 ft 166 kts 277°
2026-05-05 12:52 47.46055 8.51672 2814 ft 177 kts 276°
2026-05-05 12:53 47.46181 8.49783 3306 ft 188 kts 274°
2026-05-05 12:53 47.46013 8.47918 4154 ft 182 kts 251°
2026-05-05 12:53 47.45165 8.46591 4929 ft 183 kts 209°
2026-05-05 12:53 47.44033 8.45740 5655 ft 182 kts 218°
2026-05-05 12:54 47.42353 8.42947 6859 ft 193 kts 234°
2026-05-05 12:54 47.41564 8.41174 7178 ft 219 kts 237°
2026-05-05 12:54 47.40759 8.39200 7844 ft 227 kts 239°
2026-05-05 12:55 47.39958 8.37164 8689 ft 230 kts 239°
2026-05-05 12:55 47.39172 8.35115 9604 ft 229 kts 240°
2026-05-05 12:55 47.38410 8.33028 10434 ft 232 kts 240°
2026-05-05 12:55 47.37655 8.30916 11279 ft 232 kts 241°
2026-05-05 12:56 47.36901 8.28798 12100 ft 234 kts 241°
2026-05-05 12:56 47.36140 8.26655 12895 ft 238 kts 241°
2026-05-05 12:56 47.35367 8.24482 13558 ft 248 kts 241°
2026-05-05 12:56 47.34531 8.22136 13845 ft 270 kts 241°
2026-05-05 12:57 47.33622 8.19586 14133 ft 292 kts 241°
2026-05-05 12:57 47.32645 8.16847 14406 ft 313 kts 241°
2026-05-05 12:57 47.31599 8.13909 14681 ft 333 kts 241°
2026-05-05 12:57 47.30495 8.10839 15167 ft 344 kts 239°
2026-05-05 12:58 47.29066 8.07997 15868 ft 348 kts 224°
2026-05-05 12:58 47.27082 8.05928 16555 ft 354 kts 205°
2026-05-05 12:58 47.24691 8.04998 17227 ft 361 kts 185°
2026-05-05 12:58 47.22182 8.05388 17945 ft 368 kts 165°
2026-05-05 12:59 47.19889 8.07116 18588 ft 377 kts 144°
2026-05-05 12:59 47.18146 8.10025 19235 ft 385 kts 122°
2026-05-05 12:59 47.17232 8.13741 19964 ft 392 kts 101°
2026-05-05 13:00 47.18279 8.21607 21268 ft 409 kts 60°
2026-05-05 13:00 47.20151 8.24784 21873 ft 416 kts 39°
2026-05-05 13:01 47.28235 8.29191 23930 ft 416 kts 27°
2026-05-05 13:01 47.30569 8.31649 24179 ft 422 kts 47°
2026-05-05 13:01 47.32244 8.35178 24594 ft 421 kts 68°
2026-05-05 13:01 47.33020 8.39276 25092 ft 415 kts 88°
2026-05-05 13:02 47.32836 8.43472 25578 ft 408 kts 108°
2026-05-05 13:02 47.31729 8.47260 26048 ft 401 kts 127°
2026-05-05 13:02 47.30527 8.49374 26355 ft 397 kts 140°
2026-05-05 13:02 47.28242 8.51581 26795 ft 392 kts 160°
2026-05-05 13:03 47.25642 8.52509 27175 ft 392 kts 175°
2026-05-05 13:03 47.22898 8.52629 27449 ft 398 kts 183°
2026-05-05 13:03 47.20131 8.52176 27732 ft 403 kts 189°
2026-05-05 13:03 47.17332 8.51987 28211 ft 403 kts 179°
2026-05-05 13:04 47.14521 8.52132 28601 ft 406 kts 179°
2026-05-05 13:04 47.11675 8.52322 28790 ft 413 kts 178°
2026-05-05 13:04 47.08781 8.52590 29028 ft 419 kts 176°
2026-05-05 13:04 47.05864 8.52930 29342 ft 423 kts 176°
2026-05-05 13:05 47.02914 8.53322 29613 ft 426 kts 176°
2026-05-05 13:05 46.99954 8.53743 29864 ft 428 kts 176°
2026-05-05 13:05 46.94001 8.54620 29897 ft 436 kts 175°
2026-05-05 13:06 46.87930 8.55511 29907 ft 440 kts 176°
2026-05-05 13:06 46.81825 8.56398 29931 ft 441 kts 176°
2026-05-05 13:07 46.75698 8.57269 29927 ft 442 kts 177°
2026-05-05 13:07 46.69629 8.58127 29941 ft 440 kts 177°
2026-05-05 13:08 46.63537 8.58994 29953 ft 440 kts 178°
2026-05-05 13:08 46.57428 8.59871 29971 ft 441 kts 178°
2026-05-05 13:09 46.51316 8.60743 29968 ft 441 kts 178°
2026-05-05 13:09 46.45211 8.61606 29989 ft 440 kts 178°
2026-05-05 13:10 46.39104 8.62469 29999 ft 441 kts 178°
2026-05-05 13:10 46.32992 8.63332 30012 ft 441 kts 178°
2026-05-05 13:11 46.26885 8.64219 30006 ft 441 kts 178°
2026-05-05 13:11 46.20773 8.65066 30028 ft 441 kts 180°
2026-05-05 13:12 46.14673 8.65905 30022 ft 440 kts 180°
2026-05-05 13:12 46.08572 8.66737 30014 ft 439 kts 180°
2026-05-05 13:13 46.02489 8.67505 29996 ft 439 kts 181°
2026-05-05 13:13 45.96459 8.68259 29996 ft 437 kts 181°
2026-05-05 13:14 45.90400 8.69019 29999 ft 437 kts 181°
2026-05-05 13:14 45.84343 8.69780 29986 ft 437 kts 181°
2026-05-05 13:15 45.78287 8.70540 29991 ft 436 kts 181°
2026-05-05 13:15 45.72237 8.71299 30002 ft 436 kts 181°
2026-05-05 13:16 45.66187 8.72056 29991 ft 436 kts 181°
2026-05-05 13:16 45.60144 8.72809 29995 ft 436 kts 181°
2026-05-05 13:17 45.54109 8.73561 29982 ft 435 kts 181°
2026-05-05 13:17 45.48075 8.74309 29983 ft 435 kts 181°
2026-05-05 13:18 45.42043 8.75055 30016 ft 435 kts 181°
2026-05-05 13:18 45.36047 8.75797 30021 ft 435 kts 181°
2026-05-05 13:19 45.29969 8.76538 30019 ft 435 kts 182°
2026-05-05 13:19 45.23935 8.77257 30004 ft 435 kts 182°
2026-05-05 13:20 45.17891 8.77974 29992 ft 436 kts 182°
2026-05-05 13:20 45.11879 8.78688 29992 ft 436 kts 182°
2026-05-05 13:21 45.05830 8.79406 29993 ft 436 kts 182°
2026-05-05 13:21 44.99784 8.80122 29975 ft 436 kts 182°
2026-05-05 13:22 44.93735 8.80837 29966 ft 437 kts 181°
2026-05-05 13:22 44.87650 8.81553 29974 ft 440 kts 181°
2026-05-05 13:23 44.81545 8.82270 29971 ft 440 kts 181°
2026-05-05 13:23 44.75438 8.82988 29968 ft 440 kts 181°
2026-05-05 13:24 44.69325 8.83706 29968 ft 440 kts 181°
2026-05-05 13:24 44.63216 8.84420 29967 ft 440 kts 181°
2026-05-05 13:25 44.57106 8.85132 29965 ft 440 kts 181°
2026-05-05 13:25 44.50993 8.85842 29969 ft 440 kts 181°
2026-05-05 13:26 44.44890 8.86552 29968 ft 440 kts 181°
2026-05-05 13:26 44.38787 8.87266 29965 ft 440 kts 181°
2026-05-05 13:27 44.32677 8.87970 29966 ft 440 kts 181°
2026-05-05 13:27 44.26576 8.88672 29939 ft 440 kts 181°
2026-05-05 13:28 44.20470 8.89375 29957 ft 441 kts 181°
2026-05-05 13:28 44.14355 8.90078 29964 ft 441 kts 181°
2026-05-05 13:29 44.08242 8.90779 29960 ft 441 kts 181°
2026-05-05 13:29 44.02123 8.91479 29966 ft 442 kts 181°
2026-05-05 13:30 43.96023 8.92175 29959 ft 443 kts 181°
2026-05-05 13:30 43.89875 8.92877 29963 ft 443 kts 181°
2026-05-05 13:31 43.83731 8.93577 29960 ft 443 kts 181°
2026-05-05 13:31 43.77579 8.94275 29961 ft 444 kts 181°
2026-05-05 13:32 43.71414 8.94974 29962 ft 444 kts 181°
2026-05-05 13:32 43.65261 8.95670 29961 ft 444 kts 181°
2026-05-05 13:33 43.59112 8.95993 29958 ft 440 kts 186°
2026-05-05 13:33 43.52981 8.95938 29968 ft 440 kts 186°
2026-05-05 13:34 43.46862 8.95860 29949 ft 440 kts 186°
2026-05-05 13:34 43.40728 8.95829 29962 ft 441 kts 186°
2026-05-05 13:35 43.34624 8.95410 29960 ft 438 kts 190°
2026-05-05 13:35 43.28589 8.94740 29959 ft 437 kts 191°
2026-05-05 13:36 43.22483 8.94015 29966 ft 438 kts 191°
2026-05-05 13:36 43.16414 8.93292 29966 ft 438 kts 191°
2026-05-05 13:37 43.10342 8.92577 29966 ft 438 kts 191°
2026-05-05 13:37 43.04317 8.91873 29965 ft 438 kts 191°
2026-05-05 13:38 42.98247 8.91165 29964 ft 438 kts 191°
2026-05-05 13:38 42.92180 8.90458 29960 ft 438 kts 191°
2026-05-05 13:39 42.86105 8.89753 29955 ft 438 kts 192°
2026-05-05 13:39 42.80027 8.89048 29962 ft 438 kts 192°
2026-05-05 13:40 42.73945 8.88352 29962 ft 438 kts 191°
2026-05-05 13:40 42.67858 8.87658 29964 ft 438 kts 191°
2026-05-05 13:41 42.61770 8.86966 29965 ft 439 kts 192°
2026-05-05 13:41 42.55684 8.86276 29975 ft 439 kts 191°
2026-05-05 13:42 42.49600 8.85590 29968 ft 439 kts 192°
2026-05-05 13:42 42.43520 8.84900 29962 ft 439 kts 191°
2026-05-05 13:43 42.37443 8.84158 29975 ft 438 kts 192°
2026-05-05 13:43 42.31359 8.83486 29972 ft 439 kts 191°
2026-05-05 13:44 42.26304 8.82941 29965 ft 438 kts 191°
2026-05-05 13:44 42.19236 8.82160 29978 ft 438 kts 191°
2026-05-05 13:45 42.14140 8.81593 29964 ft 438 kts 191°
2026-05-05 13:45 42.08058 8.80952 29997 ft 438 kts 191°
2026-05-05 13:46 42.01985 8.80258 29995 ft 438 kts 192°
2026-05-05 13:46 41.95900 8.79587 29838 ft 438 kts 191°
2026-05-05 13:47 41.92862 8.79244 29565 ft 439 kts 191°
2026-05-05 13:47 41.89813 8.78895 29284 ft 440 kts 191°
2026-05-05 13:47 41.86793 8.78551 29014 ft 441 kts 191°
2026-05-05 13:47 41.83692 8.78199 28717 ft 443 kts 191°
2026-05-05 13:48 41.80650 8.77856 28449 ft 445 kts 191°
2026-05-05 13:48 41.77506 8.77610 28173 ft 450 kts 186°
2026-05-05 13:48 41.74407 8.77715 27909 ft 453 kts 184°
2026-05-05 13:48 41.71258 8.77918 27649 ft 448 kts 182°
2026-05-05 13:49 41.68181 8.78175 27392 ft 437 kts 182°
2026-05-05 13:49 41.65189 8.78452 27141 ft 425 kts 182°
2026-05-05 13:49 41.62274 8.78727 26870 ft 417 kts 182°
2026-05-05 13:49 41.59377 8.78990 26623 ft 417 kts 182°
2026-05-05 13:50 41.56485 8.79243 26372 ft 417 kts 182°
2026-05-05 13:50 41.53592 8.79491 26124 ft 415 kts 182°
2026-05-05 13:50 41.50710 8.79738 25875 ft 414 kts 181°
2026-05-05 13:50 41.47836 8.79983 25631 ft 413 kts 181°
2026-05-05 13:51 41.44975 8.80227 25390 ft 411 kts 181°
2026-05-05 13:51 41.42121 8.80471 25137 ft 410 kts 181°
2026-05-05 13:51 41.39280 8.80714 24912 ft 409 kts 181°
2026-05-05 13:51 41.36437 8.80961 24674 ft 408 kts 180°
2026-05-05 13:52 41.33615 8.81459 24438 ft 411 kts 174°
2026-05-05 13:52 41.30832 8.82369 24203 ft 413 kts 169°
2026-05-05 13:52 41.28077 8.83444 23974 ft 412 kts 168°
2026-05-05 13:52 41.25300 8.84309 23745 ft 406 kts 175°
2026-05-05 13:53 41.22507 8.84702 23507 ft 402 kts 180°
2026-05-05 13:53 41.19717 8.84915 23222 ft 401 kts 182°
2026-05-05 13:53 41.16928 8.85024 22950 ft 399 kts 183°
2026-05-05 13:53 41.14156 8.85077 22685 ft 397 kts 183°
2026-05-05 13:54 41.11404 8.85106 22421 ft 395 kts 184°
2026-05-05 13:54 41.08659 8.85130 22160 ft 393 kts 183°
2026-05-05 13:54 41.05960 8.85159 21904 ft 392 kts 183°
2026-05-05 13:54 41.03207 8.85194 21643 ft 390 kts 183°
2026-05-05 13:55 41.00525 8.85234 21380 ft 388 kts 183°
2026-05-05 13:55 40.97825 8.85278 21124 ft 387 kts 183°
2026-05-05 13:55 40.95139 8.85324 20874 ft 385 kts 183°
2026-05-05 13:55 40.92466 8.85371 20624 ft 384 kts 182°
2026-05-05 13:56 40.89800 8.85418 20378 ft 382 kts 182°
2026-05-05 13:56 40.87145 8.85465 20134 ft 380 kts 182°
2026-05-05 13:56 40.84503 8.85511 19892 ft 379 kts 182°
2026-05-05 13:56 40.81869 8.85570 19652 ft 378 kts 181°
2026-05-05 13:57 40.79245 8.85714 19425 ft 377 kts 180°
2026-05-05 13:57 40.76631 8.85919 19162 ft 377 kts 179°
2026-05-05 13:57 40.74011 8.86152 18927 ft 376 kts 179°
2026-05-05 13:57 40.71405 8.86390 18698 ft 375 kts 179°
2026-05-05 13:58 40.68808 8.86626 18466 ft 373 kts 179°
2026-05-05 13:58 40.66213 8.86855 18227 ft 372 kts 179°
2026-05-05 13:58 40.63641 8.87077 17963 ft 370 kts 179°
2026-05-05 13:58 40.61069 8.87295 17694 ft 369 kts 179°
2026-05-05 13:59 40.55970 8.87719 17166 ft 366 kts 179°
2026-05-05 13:59 40.53434 8.87929 16910 ft 364 kts 179°
2026-05-05 14:00 40.48398 8.88346 16399 ft 361 kts 179°
2026-05-05 14:00 40.45896 8.88553 16151 ft 359 kts 179°
2026-05-05 14:00 40.43437 8.88756 15904 ft 358 kts 179°
2026-05-05 14:00 40.40955 8.88961 15659 ft 357 kts 179°
2026-05-05 14:01 40.38480 8.89165 15412 ft 356 kts 179°
2026-05-05 14:01 40.36007 8.89369 15165 ft 354 kts 179°
2026-05-05 14:01 40.33554 8.89571 14925 ft 353 kts 179°
2026-05-05 14:01 40.31098 8.89774 14687 ft 352 kts 179°
2026-05-05 14:02 40.28653 8.89976 14449 ft 351 kts 179°
2026-05-05 14:02 40.26220 8.90176 14212 ft 350 kts 179°
2026-05-05 14:02 40.23796 8.90375 13981 ft 348 kts 179°
2026-05-05 14:02 40.21319 8.90573 13735 ft 372 kts 179°
2026-05-05 14:03 40.18632 8.90781 13456 ft 397 kts 179°
2026-05-05 14:03 40.15862 8.91004 13188 ft 400 kts 179°
2026-05-05 14:03 40.13082 8.91234 12917 ft 399 kts 179°
2026-05-05 14:03 40.10313 8.91466 12664 ft 398 kts 179°
2026-05-05 14:04 40.07558 8.91698 12422 ft 396 kts 179°
2026-05-05 14:04 40.04828 8.91930 12185 ft 388 kts 179°
2026-05-05 14:04 40.02177 8.92139 11937 ft 376 kts 179°
2026-05-05 14:04 39.99613 8.92341 11671 ft 362 kts 179°
2026-05-05 14:05 39.97166 8.92545 11426 ft 344 kts 179°
2026-05-05 14:05 39.94820 8.92750 11189 ft 334 kts 179°
2026-05-05 14:05 39.92508 8.92948 10949 ft 333 kts 179°
2026-05-05 14:05 39.90191 8.93136 10701 ft 333 kts 179°
2026-05-05 14:06 39.87880 8.93320 10468 ft 331 kts 179°
2026-05-05 14:06 39.85582 8.93504 10222 ft 330 kts 179°
2026-05-05 14:06 39.83300 8.93697 10025 ft 329 kts 177°
2026-05-05 14:06 39.81043 8.94228 9961 ft 331 kts 167°
2026-05-05 14:07 39.78981 8.95318 9970 ft 317 kts 155°
2026-05-05 14:07 39.77019 8.96784 9966 ft 328 kts 152°
2026-05-05 14:07 39.75074 8.98353 9961 ft 323 kts 151°
2026-05-05 14:07 39.73255 8.99855 9970 ft 314 kts 151°
2026-05-05 14:08 39.71352 9.01422 9964 ft 331 kts 151°
2026-05-05 14:08 39.69419 9.03021 9962 ft 321 kts 150°
2026-05-05 14:08 39.67600 9.04534 9950 ft 300 kts 150°
2026-05-05 14:08 39.65854 9.05982 9966 ft 309 kts 151°
2026-05-05 14:09 39.63926 9.07561 9912 ft 347 kts 150°
2026-05-05 14:09 39.61772 9.09327 9650 ft 381 kts 150°
2026-05-05 14:09 39.59505 9.11196 9378 ft 388 kts 150°
2026-05-05 14:09 39.57235 9.13075 9124 ft 387 kts 150°
2026-05-05 14:10 39.54967 9.14952 8864 ft 385 kts 150°
2026-05-05 14:10 39.52708 9.16816 8611 ft 385 kts 150°
2026-05-05 14:10 39.50439 9.18683 8348 ft 387 kts 150°
2026-05-05 14:10 39.48170 9.20548 8088 ft 386 kts 150°
2026-05-05 14:11 39.45935 9.22387 7844 ft 384 kts 150°
2026-05-05 14:11 39.43649 9.24259 7595 ft 384 kts 149°
2026-05-05 14:11 39.41392 9.26108 7457 ft 385 kts 149°
2026-05-05 14:11 39.39133 9.27962 7336 ft 384 kts 150°
2026-05-05 14:12 39.36877 9.29812 7196 ft 384 kts 150°
2026-05-05 14:12 39.34642 9.31643 6953 ft 372 kts 150°
2026-05-05 14:12 39.32521 9.33379 6726 ft 351 kts 150°
2026-05-05 14:12 39.30506 9.35029 6493 ft 334 kts 149°
2026-05-05 14:13 39.28592 9.36598 6256 ft 316 kts 149°
2026-05-05 14:13 39.26820 9.38046 6033 ft 295 kts 150°
2026-05-05 14:13 39.25153 9.39406 5978 ft 271 kts 150°
2026-05-05 14:13 39.23633 9.40648 5976 ft 248 kts 150°
2026-05-05 14:14 39.22225 9.41796 5975 ft 231 kts 150°
2026-05-05 14:14 39.20893 9.42879 5977 ft 224 kts 150°
2026-05-05 14:14 39.19570 9.43951 5972 ft 225 kts 150°
2026-05-05 14:14 39.18241 9.45028 5970 ft 227 kts 151°
2026-05-05 14:15 39.16899 9.46118 5974 ft 228 kts 151°
2026-05-05 14:15 39.15551 9.47198 5890 ft 229 kts 154°
2026-05-05 14:15 39.14080 9.47858 5695 ft 220 kts 179°
2026-05-05 14:15 39.12607 9.47555 5710 ft 215 kts 206°
2026-05-05 14:16 39.11458 9.46354 5740 ft 215 kts 235°
2026-05-05 14:16 39.10921 9.44563 5756 ft 218 kts 259°
2026-05-05 14:16 39.10801 9.42609 5793 ft 220 kts 265°
2026-05-05 14:16 39.10757 9.40637 5857 ft 221 kts 266°
2026-05-05 14:17 39.10716 9.38666 5958 ft 220 kts 266°
2026-05-05 14:17 39.10666 9.36695 6061 ft 221 kts 265°
2026-05-05 14:17 39.10610 9.34721 6167 ft 221 kts 265°
2026-05-05 14:17 39.10549 9.32745 6163 ft 222 kts 265°
2026-05-05 14:18 39.10486 9.30762 5969 ft 221 kts 265°
2026-05-05 14:18 39.10424 9.28818 5762 ft 212 kts 265°
2026-05-05 14:18 39.10362 9.26940 5407 ft 209 kts 265°
2026-05-05 14:18 39.10302 9.25117 5042 ft 203 kts 265°
2026-05-05 14:19 39.10499 9.23359 4682 ft 199 kts 290°
2026-05-05 14:19 39.11153 9.21809 4309 ft 197 kts 304°
2026-05-05 14:19 39.12086 9.20556 4000 ft 192 kts 316°
2026-05-05 14:19 39.13071 9.19433 3718 ft 189 kts 316°
2026-05-05 14:20 39.14054 9.18302 3363 ft 191 kts 316°
2026-05-05 14:20 39.15049 9.17144 2993 ft 195 kts 316°
2026-05-05 14:20 39.16062 9.15967 2641 ft 197 kts 317°
2026-05-05 14:20 39.17096 9.14802 2328 ft 196 kts 318°
2026-05-05 14:21 39.18123 9.13690 1996 ft 189 kts 319°
2026-05-05 14:21 39.19100 9.12604 1629 ft 181 kts 316°
2026-05-05 14:21 39.19979 9.11518 1335 ft 168 kts 314°
2026-05-05 14:21 39.20779 9.10491 1020 ft 162 kts 315°
2026-05-05 14:22 39.21600 9.09533 749 ft 155 kts 318°
2026-05-05 14:22 39.22390 9.08639 527 ft 148 kts 316°
2026-05-05 14:22 39.23141 9.07771 313 ft 143 kts 314°
2026-05-05 14:22 39.23854 9.06927 124 ft 133 kts 317°
2026-05-05 14:23 39.24497 9.06182 20 ft 113 kts 317°
2026-05-05 14:23 39.25166 9.05399 96 ft 161 kts 316°
2026-05-05 14:23 39.26063 9.04370 742 ft 180 kts 316°
2026-05-05 14:23 39.27233 9.03528 1176 ft 200 kts 353°
2026-05-05 14:24 39.28435 9.03821 1697 ft 172 kts 24°
2026-05-05 14:24 39.29598 9.04380 1950 ft 171 kts 15°
2026-05-05 14:24 39.30640 9.04090 1896 ft 162 kts 308°
2026-05-05 14:24 39.30837 9.02729 1794 ft 155 kts 243°
2026-05-05 14:25 39.30031 9.01950 1628 ft 148 kts 186°
2026-05-05 14:25 39.29022 9.01944 1296 ft 144 kts 175°
2026-05-05 14:25 39.28047 9.02264 775 ft 150 kts 152°
2026-05-05 14:25 39.27193 9.03077 439 ft 161 kts 139°
2026-05-05 14:26 39.26345 9.04070 172 ft 161 kts 140°
2026-05-05 14:26 39.25538 9.04990 39 ft 144 kts 141°
2026-05-05 14:26 39.24819 9.05820 139 ft 146 kts 141°
2026-05-05 14:26 39.23998 9.06812 687 ft 176 kts 136°
2026-05-05 14:27 39.23077 9.08029 1192 ft 202 kts 134°
2026-05-05 14:27 39.22079 9.09441 1708 ft 226 kts 132°
2026-05-05 14:27 39.21016 9.11099 2234 ft 251 kts 129°
2026-05-05 14:27 39.20005 9.12813 2367 ft 231 kts 141°
2026-05-05 14:28 39.18575 9.13475 2237 ft 219 kts 186°
2026-05-05 14:28 39.17358 9.12576 2172 ft 205 kts 235°
2026-05-05 14:28 39.17178 9.10851 2093 ft 198 kts 294°
2026-05-05 14:28 39.18248 9.09966 1676 ft 193 kts 356°
2026-05-05 14:29 39.19595 9.09910 1285 ft 193 kts 358°
2026-05-05 14:29 39.20906 9.09612 967 ft 189 kts 344°
2026-05-05 14:29 39.22043 9.08866 687 ft 179 kts 324°
2026-05-05 14:29 39.23001 9.07915 457 ft 169 kts 317°
2026-05-05 14:30 39.23572 9.07251 265 ft 166 kts 314°
2026-05-05 14:30 39.24424 9.06272 33 ft 159 kts 315°
2026-05-05 14:30 39.25161 9.05412 21 ft 105 kts 318°
2026-05-05 14:30 39.25517 9.05003 23 ft 58 kts 319°
2026-05-05 14:31 39.25727 9.04855 26 ft 20 kts
2026-05-05 14:31 39.25768 9.04971 26 ft 16 kts 115°
2026-05-05 14:31 39.25705 9.05058 24 ft 12 kts 136°
2026-05-05 14:31 39.25640 9.05133 24 ft 13 kts 136°
2026-05-05 14:32 39.25561 9.05227 23 ft 18 kts 139°
2026-05-05 14:32 39.25464 9.05340 22 ft 19 kts 139°
2026-05-05 14:32 39.25405 9.05487 24 ft 19 kts 99°
2026-05-05 14:32 39.25360 9.05637 22 ft 17 kts 130°
2026-05-05 14:33 39.25346 9.05685 22 ft 0 kts 88°
2026-05-05 14:33 39.25370 9.05734 22 ft 7 kts 50°
2026-05-05 14:33 39.25391 9.05784 22 ft 6 kts 90°
2026-05-05 14:33 39.25372 9.05808 23 ft 6 kts 152°
2026-05-05 14:34 39.25350 9.05829 22 ft 0 kts 142°